This is the latest recevied weather packets stored in our database for station/object KE8AFF-13. If no packets are shown the sender has not sent any weather packets the latest 10 day(s).
| Time | Temp. | Humidity | Pressure | Rain* | Wind** | Luminosity | Snow |
|---|---|---|---|---|---|---|---|
| 1778040507 | 7.78° C | 99% | 1007.8 hPa | 0.51 mm | - | 0 W/m² | - |
| 1778040204 | 7.78° C | 99% | 1007.5 hPa | 1.27 mm | - | 0 W/m² | - |
| 1778039900 | 7.78° C | 99% | 1007.6 hPa | 0.51 mm | - | 0 W/m² | - |
| 1778039598 | 7.78° C | 99% | 1007.7 hPa | 0.51 mm | - | 0 W/m² | - |
| 1778039295 | 7.78° C | 99% | 1007.8 hPa | 1.78 mm | - | 0 W/m² | - |
| 1778038992 | 7.78° C | 99% | 1007.7 hPa | 2.29 mm | - | 0 W/m² | - |
| 1778038689 | 7.78° C | 99% | 1007.8 hPa | 1.78 mm | - | 0 W/m² | - |
| 1778038386 | 7.78° C | 99% | 1008 hPa | 0.51 mm | - | 0 W/m² | - |
| 1778038083 | 7.78° C | 99% | 1007.9 hPa | 0.51 mm | - | 0 W/m² | - |
| 1778037780 | 7.78° C | 99% | 1008.1 hPa | 1.27 mm | - | 0 W/m² | - |
| 1778037476 | 8.33° C | 99% | 1008 hPa | 1.78 mm | - | 0 W/m² | - |
| 1778037173 | 8.33° C | 99% | 1008.1 hPa | 1.78 mm | - | 0 W/m² | - |
| 1778036871 | 8.33° C | 99% | 1008.5 hPa | 2.29 mm | - | 0 W/m² | - |
| 1778036569 | 8.33° C | 99% | 1008.7 hPa | 3.05 mm | - | 0 W/m² | - |
| 1778036266 | 8.33° C | 99% | 1008.5 hPa | 3.05 mm | - | 0 W/m² | - |
| 1778035962 | 8.33° C | 99% | 1008.6 hPa | 1.78 mm | - | 0 W/m² | - |
| 1778035659 | 8.33° C | 99% | 1008.6 hPa | 1.27 mm | - | 0 W/m² | - |
| 1778035355 | 8.33° C | 99% | 1008.8 hPa | 1.27 mm | - | 0 W/m² | - |
| 1778035052 | 8.33° C | 99% | 1008.7 hPa | 1.78 mm | - | 0 W/m² | - |
| 1778034749 | 8.33° C | 99% | 1009 hPa | 1.27 mm | - | 0 W/m² | - |
| 1778034446 | 8.33° C | 99% | 1008.9 hPa | 1.27 mm | - | 0 W/m² | - |
| 1778034143 | 8.33° C | 99% | 1008.8 hPa | 1.78 mm | - | 0 W/m² | - |
| 1778033841 | 8.33° C | 99% | 1009.1 hPa | 3.05 mm | - | 0 W/m² | - |
| 1778033538 | 8.33° C | 99% | 1008.6 hPa | 2.29 mm | - | 0 W/m² | - |
| 1778033235 | 8.33° C | 99% | 1008.9 hPa | 3.05 mm | - | 0 W/m² | - |
* Rain latest hour (hover to see other rain measurements)
** Current wind speed in m/s (hover to see current wind gust speed)